sat.trackr.live / text

‹ back to catalog

STARLINK-6143

NORAD 57133 · 2023-090AJ

PAYLOAD ACTIVE UNKNOWN

§ Identity

Operator
Country
US
Launch date
2023-06-23
Launch site
AFETR
Launch vehicle
Mass (kg)
RCS (m²)

Purposes: comms

External: N2YO · Heavens-Above · Gunter

§ Orbital elements

Epoch: 2026-05-25T04:30:29.161728Z

Period
94.27 min
Inclination
43.0032°
Eccentricity
0.0001868
Mean motion
15.27576668 rev/d
Perigee alt
481.8 km
Apogee alt
484.3 km
Semi-major
6,861.2 km
B*
3.1515e-5
RAAN
191.2520°
Arg perigee
276.3810°
Mean anomaly
83.6829°
Rev number
16,205

§ Raw data

STARLINK-61431 57133U 23090AJ  26145.18783752  .00000605  00000+0  31515-4 0  99912 57133  43.0032 191.2520 0001868 276.3810  83.6829 15.27576668162056

JSON: /api/v1/satellites/57133 · /tle

For live sub-satellite position, see the globe view (requires WebGL).

§ Visibility from observer

Set your observer location to see the next 7 days of passes ≥ 10°. The values pass through the URL so the page stays shareable.

No JS? Fill the form by hand. The geolocation button needs JavaScript.